LiveATC.Net - Listen to live air traffic control over the Internet!


ICAO: KCDW  IATA: CDW   Airport: Essex County Airport
City: Caldwell   State/Province: New Jersey
Country: United States   Continent: North America
KCDW METAR Weather: KCDW 060953Z AUTO 00000KT 5SM BR CLR 23/21 A2980 RMK AO2 SLP094 T02280211
KCDW Flight Activity (FlightAware)
KCDW Airport Info   (iFlightPlanner)
KCDW VFR Sectional Chart   (iFlightPlanner) 
KCDW IFR Low Altitude Chart   (iFlightPlanner) 
KCDW IFR High Altitude Chart   (iFlightPlanner) 

KCDW Del/Gnd/Twr
Feed Status: UP   Listeners: 0
Listen in your browser - HTML5 player (in browser, HTML5)
Click here to listen with your own player (launches your MP3 player)
Archive Access: KCDW Del/Gnd/Twr
FacilityFrequency
Caldwell Clearance121.100
Caldwell Ground121.900
Caldwell Tower119.800
Feed provided by: Century Air 973-575-4800

NOTICE

Unauthorized use prohibited. See LiveATC.net Terms of Service


Airport/ARTCC Code
Frequency Search
(e.g., 124.400, 128.75)
Site-wide search
 


Browse Feeds
Top 50 Feeds
HF Oceanic Feeds
Coverage Map
Bad Weather Areas

LiveATC FAQ
Offer LiveATC feed
Contact LiveATC.net
Press Inquiries

LiveATC on iPhone
LiveATC on Android

LiveATC Mobile
(Mobile browser)

ATC Audio Archives
Interesting Recordings

LiveATC Forums


Home Page
About LiveATC.net


Terms of Use
Privacy Policy

AIRMETs/SIGMETs

FAA Airport Status
NAS Status
Arrival Demand


Server Software By:
Icecast.org
Liquidsoap